Glasgow, KY

1:55 AM CST on February 18, 2018 (GMT -0600)
Glasgow Municipal

Weather History for KGLW - April, 2014

Change the Weather History Date:

Saturday, April 26, 2014

  Actual Average Record
Temperature  
Mean Temperature 60 °F -  
Max Temperature 79 °F 73 °F 90 °F (1989)
Min Temperature 40 °F 46 °F 34 °F (1972)
Degree Days  
Heating Degree Days 6    
Growing Degree Days 10 (Base 50)    
Moisture  
Dew Point 44 °F    
Average Humidity 62    
Maximum Humidity 100    
Minimum Humidity 24    
Precipitation  
Precipitation 0.00 in - - ()
Sea Level Pressure  
Sea Level Pressure 29.97 in    
Wind  
Wind Speed 2 mph (SW)    
Max Wind Speed 10 mph    
Max Gust Speed 16 mph    
Visibility 10 miles    
Events      
Averages and records for this station are not official NWS values.
T = Trace of Precipitation, MM = Missing Value Source: NWS Daily Summary

Daily Weather History Graph

Daily Weather History Graph

Search for Another Location

Airport or City:

Trip Planner

Search our weather history database for the weather conditions in past years. The results will help you decide how hot, cold, wet, or windy it might be!

Date:

Astronomy

Apr. 26, 2014 Rise Set
Actual Time 5:55 AM CDT 7:28 PM CDT
Civil Twilight 5:27 AM CDT 7:56 PM CDT
Nautical Twilight 4:54 AM CDT 8:29 PM CDT
Astronomical Twilight 4:19 AM CDT 9:04 PM CDT
Moon 4:14 AM CDT (4/26) 4:59 PM CDT (4/26)
Length of Visible Light 14h 28m
Length of Day
13h 33m
Waning Crescent, 8% of the Moon is Illuminated
Apr 26
Waning Crescent
Apr 29
New
May 6
First Quarter
May 14
Full
May 21
Last Quarter

Hourly Weather History & Observations

Time (CDT) Temp. Dew Point Humidity Pressure Visibility Wind Dir Wind Speed Gust Speed Precip Events Conditions
12:15 AM 47.1 °F 43.5 °F 87% 29.98 in 10.0 mi Calm Calm - N/A   Clear
12:35 AM 46.0 °F 43.3 °F 90% 29.98 in 10.0 mi Calm Calm - N/A   Clear
12:55 AM 45.5 °F 45.3 °F 99% 29.98 in 10.0 mi Calm Calm - N/A   Clear
1:15 AM 45.9 °F 45.9 °F 100% 29.98 in 10.0 mi Calm Calm - N/A   Clear
1:35 AM 45.3 °F 45.3 °F 100% 29.96 in 10.0 mi Calm Calm - N/A   Clear
1:55 AM 45.5 °F 45.5 °F 100% 29.96 in 10.0 mi Calm Calm - N/A   Clear
2:15 AM 45.3 °F 45.3 °F 100% 29.96 in 10.0 mi Calm Calm - N/A   Clear
2:35 AM 44.8 °F 44.8 °F 100% 29.96 in 10.0 mi Calm Calm - N/A   Clear
2:55 AM 43.9 °F 43.9 °F 100% 29.97 in 10.0 mi Calm Calm - N/A   Clear
3:15 AM 44.6 °F 44.6 °F 100% 29.97 in 10.0 mi Calm Calm - N/A   Clear
3:35 AM 44.4 °F 44.4 °F 100% 29.98 in 10.0 mi Calm Calm - N/A   Clear
3:55 AM 43.9 °F 43.9 °F 100% 29.98 in 10.0 mi Calm Calm - N/A   Clear
4:15 AM 43.2 °F 43.2 °F 100% 29.98 in 10.0 mi Calm Calm - N/A   Clear
4:35 AM 43.2 °F 43.2 °F 100% 29.98 in 10.0 mi Calm Calm - N/A   Clear
4:55 AM 42.8 °F 42.8 °F 100% 29.98 in 10.0 mi Calm Calm - N/A   Clear
5:15 AM 42.4 °F 42.4 °F 100% 29.98 in 10.0 mi Calm Calm - N/A   Clear
5:35 AM 42.1 °F 42.1 °F 100% 29.98 in 10.0 mi Calm Calm - N/A   Clear
5:55 AM 41.2 °F 41.2 °F 100% 29.99 in - Calm Calm - N/A   Unknown
6:15 AM 40.8 °F 40.8 °F 100% 30.00 in 7.0 mi Calm Calm - N/A   Clear
6:35 AM 41.9 °F 41.9 °F 100% 30.01 in 10.0 mi Calm Calm - N/A   Clear
6:55 AM 43.9 °F 43.7 °F 99% 30.01 in 10.0 mi Calm Calm - N/A   Clear
7:15 AM 46.8 °F 44.4 °F 92% 30.01 in 10.0 mi Calm Calm - N/A   Clear
7:35 AM 49.3 °F 44.6 °F 84% 30.02 in 10.0 mi Calm Calm - N/A   Clear
7:55 AM 52.3 °F 44.8 °F 75% 30.01 in 10.0 mi Calm Calm - N/A   Clear
8:15 AM 56.1 °F 43.9 °F 64% 30.01 in 10.0 mi South 3.5 mph - N/A   Clear
8:35 AM 58.8 °F 43.5 °F 57% 30.01 in 10.0 mi SSW 5.8 mph - N/A   Clear
8:55 AM 61.3 °F 44.2 °F 53% 30.01 in 10.0 mi South 3.5 mph - N/A   Clear
9:15 AM 63.7 °F 44.6 °F 50% 30.01 in 10.0 mi South 5.8 mph - N/A   Clear
9:35 AM 65.1 °F 45.0 °F 48% 30.01 in 10.0 mi SSW 6.9 mph - N/A   Clear
9:55 AM 66.7 °F 45.0 °F 45% 30.02 in 10.0 mi SW 8.1 mph - N/A   Clear
10:15 AM 68.4 °F 45.0 °F 43% 30.03 in 10.0 mi SW 5.8 mph - N/A   Clear
10:35 AM 69.6 °F 44.2 °F 40% 30.02 in 10.0 mi SSW 4.6 mph - N/A   Clear
10:55 AM 70.9 °F 43.2 °F 37% 30.03 in 10.0 mi WSW 8.1 mph - N/A   Clear
11:15 AM 71.8 °F 42.6 °F 35% 30.02 in 10.0 mi SW 6.9 mph - N/A   Clear
11:35 AM 72.7 °F 42.3 °F 33% 30.02 in 10.0 mi SSW 8.1 mph - N/A   Clear
11:55 AM 73.4 °F 41.7 °F 32% 30.01 in 10.0 mi SW 8.1 mph - N/A   Clear
12:15 PM 74.3 °F 41.5 °F 31% 30.01 in 10.0 mi WSW 6.9 mph - N/A   Clear
12:35 PM 75.0 °F 40.6 °F 29% 30.00 in 10.0 mi SW 6.9 mph - N/A   Clear
12:55 PM 75.4 °F 39.9 °F 28% 29.99 in 10.0 mi SW 8.1 mph - N/A   Clear
1:15 PM 76.3 °F 40.8 °F 28% 29.99 in 10.0 mi WSW 5.8 mph - N/A   Clear
1:35 PM 76.3 °F 39.9 °F 27% 29.98 in 10.0 mi SW 8.1 mph - N/A   Clear
1:55 PM 76.1 °F 39.4 °F 27% 29.98 in 10.0 mi SSW 5.8 mph - N/A   Clear
2:15 PM 75.6 °F 38.5 °F 26% 29.98 in 10.0 mi SSW 10.4 mph - N/A   Clear
2:35 PM 76.8 °F 39.2 °F 26% 29.98 in 10.0 mi WSW 6.9 mph - N/A   Clear
2:55 PM 78.3 °F 39.0 °F 24% 29.97 in 10.0 mi SW 8.1 mph 16.1 mph N/A   Clear
3:15 PM 77.9 °F 39.7 °F 25% 29.96 in 10.0 mi SW 6.9 mph - N/A   Clear
3:35 PM 78.4 °F 40.5 °F 26% 29.96 in 10.0 mi SW 8.1 mph - N/A   Clear
3:55 PM 78.8 °F 39.7 °F 25% 29.95 in 10.0 mi SW 5.8 mph - N/A   Clear
4:15 PM 79.2 °F 40.6 °F 25% 29.95 in 10.0 mi SW 3.5 mph - N/A   Clear
4:35 PM 78.4 °F 40.1 °F 25% 29.95 in 10.0 mi SSW 6.9 mph - N/A   Clear
4:55 PM 77.4 °F 39.4 °F 26% 29.95 in 10.0 mi SSW 5.8 mph - N/A   Clear
5:15 PM 77.0 °F 40.5 °F 27% 29.94 in 10.0 mi SW 5.8 mph - N/A   Clear
5:35 PM 77.0 °F 41.7 °F 28% 29.93 in 10.0 mi WSW 6.9 mph - N/A   Clear
5:55 PM 76.3 °F 43.7 °F 31% 29.93 in 10.0 mi SW 4.6 mph - N/A   Clear
6:15 PM 75.4 °F 45.9 °F 35% 29.92 in 10.0 mi Calm Calm - N/A   Clear
6:35 PM 74.8 °F 46.9 °F 37% 29.92 in 10.0 mi Calm Calm - N/A   Clear
6:55 PM 73.2 °F 47.7 °F 40% 29.92 in 10.0 mi Calm Calm - N/A   Clear
7:15 PM 70.5 °F 46.2 °F 42% 29.91 in 10.0 mi Calm Calm - N/A   Clear
7:35 PM 66.4 °F 47.5 °F 51% 29.91 in 10.0 mi Calm Calm - N/A   Clear
7:55 PM 64.0 °F 48.6 °F 57% 29.91 in 10.0 mi Calm Calm - N/A   Clear
8:15 PM 64.6 °F 46.9 °F 53% 29.92 in 10.0 mi Calm Calm - N/A   Clear
8:35 PM 63.3 °F 49.1 °F 60% 29.92 in 10.0 mi Calm Calm - N/A   Clear
9:15 PM 63.3 °F 50.0 °F 62% 29.93 in 10.0 mi Calm Calm - N/A   Clear
9:35 PM 61.9 °F 52.2 °F 70% 29.93 in 10.0 mi Calm Calm - N/A   Clear
9:55 PM 61.0 °F 51.1 °F 70% 29.93 in 10.0 mi Calm Calm - N/A   Clear
10:15 PM 60.1 °F 50.4 °F 70% 29.93 in 10.0 mi Calm Calm - N/A   Clear
10:35 PM 58.6 °F 50.0 °F 73% 29.93 in 10.0 mi Calm Calm - N/A   Clear
10:55 PM 57.2 °F 49.6 °F 76% 29.93 in 10.0 mi Calm Calm - N/A   Clear
11:10 PM 56.8 °F 49.1 °F 75% 29.93 in 10.0 mi East 3.5 mph - N/A   Clear
11:35 PM 55.8 °F 48.7 °F 77% 29.93 in 10.0 mi Calm Calm - N/A   Clear
11:55 PM 55.0 °F 48.9 °F 80% 29.93 in 10.0 mi East 3.5 mph - N/A   Clear